1512097201.14,24597,4.25,72004.5,-14.11,-15.43,-15.71,0,*69
1512097202.4,24598,4.25,72002.5,-14.11,-15.43,-15.57,0,*62
1512097203.67,24599,4.25,72000.8,-14.11,-15.39,-15.57,0,*6E
1512097204.94,24600,4.25,72004.0,-14.11,-15.39,-15.57,0,*6D
1512097206.21,24601,4.25,72006.8,-14.11,-15.43,-15.57,0,*61
1512097207.45,24602,4.25,72000.5,-14.11,-15.39,-15.67,0,*6C
1512097208.71,24603,4.25,72004.5,-14.09,-15.43,-15.67,0,*69
1512097210.0,24604,4.25,72006.5,-14.09,-15.39,-15.57,0,*60
1512097211.22,24605,4.25,72010.0,-14.11,-15.53,-15.71,0,*60
1512097212.47,24606,4.25,72006.3,-14.09,-15.53,-15.71,0,*6A
1512097213.71,24607,4.25,72010.8,-14.11,-15.39,-15.71,0,*6E
1512097214.99,24608,4.25,72006.3,-14.09,-15.43,-15.71,0,*65
1512097216.25,24609,4.25,72006.0,-14.09,-15.43,-15.67,0,*63
1512097217.52,24610,4.25,72004.3,-14.09,-15.43,-15.67,0,*6B
1512097218.78,24611,4.25,72004.3,-14.09,-15.43,-15.67,0,*6A
1512097220.05,24612,4.25,72008.0,-14.05,-15.39,-15.63,0,*6C
1512097221.32,24613,4.25,72004.3,-14.09,-15.39,-15.67,0,*65
1512097222.61,24614,4.25,72002.3,-14.09,-15.43,-15.81,0,*67
1512097223.86,24615,4.25,72004.8,-14.09,-15.53,-15.71,0,*68
1512097225.13,24616,4.25,72006.5,-14.09,-15.53,-15.81,0,*64
1512097226.41,24617,4.25,72008.5,-14.09,-15.67,-15.81,0,*62
1512097227.65,24618,4.25,72006.5,-14.09,-15.67,-15.95,0,*68
1512097228.92,24619,4.25,72006.5,-14.09,-15.81,-15.95,0,*61
1512097230.19,24620,4.25,72006.8,-14.09,-15.81,-15.95,0,*6B
1512097231.46,24621,4.25,72006.0,-14.09,-15.85,-15.99,0,*62
1512097232.7,24622,4.25,72010.0,-14.11,-15.95,-16.13,0,*68
1512097233.96,24623,4.25,72004.0,-14.09,-15.99,-16.17,0,*68
1512097235.23,24624,4.25,72006.5,-14.09,-16.03,-16.27,0,*6C
1512097236.46,24625,4.25,72004.0,-14.11,-15.99,-16.27,0,*64
1512097237.73,24626,4.25,72010.5,-14.09,-15.99,-16.17,0,*6D
1512097238.98,24627,4.25,72008.5,-14.11,-15.95,-16.17,0,*69
1512097240.22,24628,4.25,72004.8,-14.11,-15.85,-16.03,0,*62
1512097241.46,24629,4.25,72006.3,-14.11,-15.85,-15.99,0,*63
1512097242.7,24630,4.25,72006.5,-14.11,-15.85,-15.95,0,*67
1512097243.92,24631,4.25,72012.3,-14.11,-15.95,-16.03,0,*6B
1512097245.19,24632,4.25,72010.0,-14.11,-15.85,-16.13,0,*68
1512097246.43,24633,4.25,72008.5,-14.11,-15.85,-16.03,0,*68
1512097247.67,24634,4.25,72004.3,-14.11,-15.85,-15.99,0,*6F
1512097248.89,24635,4.25,72006.5,-14.11,-15.71,-15.99,0,*65
1512097250.12,24636,4.25,72000.8,-14.11,-15.81,-15.99,0,*69
1512097251.34,24637,4.25,72002.8,-14.11,-15.71,-15.99,0,*67
1512097252.58,24638,4.25,72006.0,-14.11,-15.81,-15.95,0,*6B
1512097253.79,24639,4.25,72002.8,-14.11,-15.71,-16.03,0,*69
1512097255.04,24640,4.25,72006.3,-14.11,-15.85,-16.03,0,*6C
1512097256.28,24641,4.25,72006.0,-14.11,-15.95,-16.17,0,*69
1512097257.52,24642,4.25,72004.3,-14.11,-15.95,-16.13,0,*6E
1512097258.79,24643,4.25,72004.3,-14.11,-15.85,-16.13,0,*6E
1512097260.03,24644,4.25,72006.0,-14.11,-15.95,-16.13,0,*68
1512097261.28,24645,4.19,72000.8,-14.11,-15.81,-15.95,0,*61
1512097262.52,24646,4.25,72000.5,-14.11,-15.71,-15.85,0,*6C
1512097263.76,24647,4.25,72004.0,-14.11,-15.71,-15.85,0,*6D
1512097265.01,24648,4.25,72004.3,-14.11,-15.71,-15.85,0,*62
1512097266.27,24649,4.25,72004.5,-14.11,-15.81,-15.85,0,*6C
1512097267.49,24650,4.25,72004.0,-14.11,-15.71,-15.95,0,*6A
1512097268.73,24651,4.25,72006.5,-14.11,-15.71,-15.85,0,*6A
1512097270.0,24652,4.25,72004.8,-14.11,-15.57,-15.85,0,*6D
1512097271.27,24653,4.25,72004.5,-14.11,-15.57,-15.81,0,*68
1512097272.52,24654,4.25,72006.0,-14.11,-15.53,-15.81,0,*6B
1512097273.74,24655,4.25,72004.8,-14.11,-15.53,-15.71,0,*65
1512097274.98,24656,4.25,72006.5,-14.11,-15.53,-15.81,0,*69
1512097276.23,24657,4.25,72006.0,-14.11,-15.53,-15.81,0,*68
1512097277.45,24658,4.25,72002.8,-14.11,-15.53,-15.71,0,*68
1512097278.7,24659,4.25,72004.8,-14.09,-15.53,-15.71,0,*60
1512097279.97,24660,4.25,72002.3,-14.11,-15.43,-15.81,0,*6D
1512097281.22,24661,4.25,72006.8,-14.11,-15.53,-15.81,0,*6D
1512097282.46,24662,4.25,72006.0,-14.11,-15.53,-15.81,0,*6E
1512097283.76,24663,4.25,72004.0,-14.09,-15.57,-15.81,0,*62
1512097285.03,24664,4.25,72010.8,-14.11,-15.57,-15.81,0,*6C
1512097286.3,24665,4.19,72002.5,-14.11,-15.57,-15.81,0,*6D
1512097287.57,24666,4.25,72004.5,-14.11,-15.57,-15.81,0,*6E
1512097288.84,24667,4.25,72004.3,-14.09,-15.67,-15.85,0,*61
1512097290.05,24668,4.25,72000.8,-14.11,-15.67,-15.95,0,*66
1512097291.3,24669,4.25,72004.3,-14.11,-15.67,-15.85,0,*66
1512097292.56,24670,4.25,72008.8,-14.09,-15.67,-15.85,0,*67
1512097293.83,24671,4.25,72004.8,-14.09,-15.67,-15.85,0,*66
1512097295.07,24672,4.25,72010.3,-14.11,-15.81,-15.99,0,*69
1512097296.29,24673,4.25,72004.5,-14.11,-15.71,-15.99,0,*67
1512097297.5,24674,4.25,72010.3,-14.11,-15.71,-15.95,0,*6C
1512097298.75,24675,4.25,72008.3,-14.11,-15.71,-15.85,0,*6C
1512097300.02,24676,4.25,72006.3,-14.09,-15.71,-15.85,0,*66
1512097301.29,24677,4.25,72006.3,-14.09,-15.71,-15.85,0,*67
1512097302.58,24678,4.25,72006.5,-14.09,-15.57,-15.85,0,*6C
1512097303.85,24679,4.25,72008.8,-14.09,-15.67,-15.85,0,*6E
1512097305.09,24680,4.19,72004.0,-14.11,-15.67,-15.85,0,*61
1512097306.34,24681,4.19,72004.3,-14.09,-15.67,-15.95,0,*68
1512097307.56,24682,4.25,72004.3,-14.11,-15.67,-15.95,0,*62
1512097308.8,24683,4.25,72012.3,-14.09,-15.71,-15.99,0,*61
1512097310.04,24684,4.25,72010.5,-14.11,-15.81,-16.03,0,*60
1512097311.27,24685,4.25,72008.0,-14.11,-15.81,-16.03,0,*61
1512097312.52,24686,4.25,72008.8,-14.11,-15.85,-15.95,0,*6A
1512097313.81,24687,4.25,72004.3,-14.09,-15.81,-15.85,0,*67
1512097315.11,24688,4.25,72008.0,-14.09,-15.57,-15.85,0,*63
1512097316.37,24689,4.25,72008.5,-14.11,-15.57,-15.85,0,*6B
1512097317.64,24690,4.25,72004.3,-14.11,-15.57,-15.85,0,*63
1512097318.89,24691,4.25,72006.5,-14.11,-15.53,-15.81,0,*62
1512097320.16,24692,4.25,72010.5,-14.11,-15.43,-15.81,0,*60
1512097321.43,24693,4.25,72010.3,-14.09,-15.67,-15.81,0,*6E
1512097322.7,24694,4.25,72008.8,-14.11,-15.57,-15.81,0,*63
1512097323.99,24695,4.25,72008.5,-14.09,-15.43,-15.81,0,*6E
1512097325.29,24696,4.25,72012.0,-14.09,-15.43,-15.81,0,*6D
1512097326.54,24697,4.25,72010.3,-14.09,-15.53,-15.71,0,*62
1512097327.79,24698,4.25,72010.8,-14.11,-15.53,-15.81,0,*6B
1512097329.08,24699,4.25,72008.0,-14.09,-15.57,-15.81,0,*67
1512097330.33,24700,4.25,72010.8,-14.09,-15.67,-15.95,0,*60
1512097331.57,24701,4.25,72010.3,-14.11,-15.81,-15.95,0,*60
1512097332.83,24702,4.25,72008.5,-14.09,-15.81,-15.99,0,*66
1512097334.08,24703,4.25,72010.0,-14.11,-15.81,-15.95,0,*62
1512097335.32,24704,4.25,72010.0,-14.11,-15.71,-15.85,0,*6B
1512097336.59,24705,4.25,72008.0,-14.09,-15.53,-15.85,0,*63
1512097337.88,24706,4.25,72010.3,-14.09,-15.57,-15.85,0,*64
1512097339.13,24707,4.25,72012.5,-14.11,-15.67,-15.85,0,*6F
1512097340.4,24708,4.25,72010.0,-14.09,-15.67,-15.85,0,*69
1512097341.67,24709,4.19,72008.0,-14.09,-15.67,-15.85,0,*68
1512097342.93,24710,4.25,72014.3,-14.09,-15.81,-15.95,0,*69
1512097344.2,24711,4.25,72012.3,-14.09,-15.71,-15.85,0,*66
1512097345.47,24712,4.25,72012.0,-14.09,-15.71,-15.85,0,*65
1512097346.74,24713,4.25,72012.5,-14.11,-15.57,-15.85,0,*69
1512097348.03,24714,4.25,72010.0,-14.09,-15.57,-15.85,0,*67
1512097349.33,24715,4.25,72008.3,-14.09,-15.57,-15.85,0,*66
1512097350.6,24716,4.25,72012.3,-14.09,-15.71,-15.85,0,*61
1512097351.81,24717,4.25,72008.3,-14.11,-15.71,-15.95,0,*68
1512097353.06,24718,4.25,72006.8,-14.11,-15.71,-15.85,0,*66
1512097354.33,24719,4.25,72008.3,-14.09,-15.71,-15.85,0,*6E
1512097355.59,24720,4.25,72010.8,-14.11,-15.57,-15.85,0,*69
1512097356.89,24721,4.25,72010.8,-14.09,-15.57,-15.81,0,*65
1512097358.13,24722,4.25,72012.8,-14.11,-15.67,-15.85,0,*68
1512097359.4,24723,4.25,72008.8,-14.09,-15.57,-15.95,0,*62
1512097360.67,24724,4.25,72008.0,-14.09,-15.53,-15.81,0,*64
1512097361.95,24725,4.25,72010.5,-14.09,-15.71,-15.85,0,*61
1512097363.24,24726,4.25,72014.5,-14.09,-15.57,-15.85,0,*66
1512097364.53,24727,4.25,72008.5,-14.09,-15.57,-15.81,0,*63
1512097365.83,24728,4.25,72010.8,-14.09,-15.57,-15.81,0,*6C
1512097367.04,24729,4.25,72010.5,-14.11,-15.53,-15.67,0,*68
1512097368.32,24730,4.25,72012.8,-14.09,-15.53,-15.81,0,*61
1512097369.61,24731,4.25,72008.3,-14.09,-15.57,-15.81,0,*64
1512097370.91,24732,4.25,72010.3,-14.09,-15.57,-15.81,0,*67
1512097372.2,24733,4.25,72010.8,-14.09,-15.57,-15.81,0,*66
1512097373.45,24734,4.25,72010.8,-14.09,-15.53,-15.71,0,*6A
1512097374.7,24735,4.25,72006.8,-14.09,-15.53,-15.71,0,*6B
1512097375.97,24736,4.19,72004.8,-14.09,-15.57,-15.71,0,*6C
1512097377.24,24737,4.25,72008.8,-14.09,-15.53,-15.81,0,*66
1512097378.48,24738,4.19,72004.5,-14.05,-15.49,-15.67,0,*66
1512097379.72,24739,4.25,72010.8,-14.05,-15.49,-15.75,0,*64
1512097381.0,24740,4.25,72012.8,-14.05,-15.63,-15.81,0,*69
1512097382.27,24741,4.25,72014.0,-14.09,-15.67,-15.85,0,*64
1512097383.54,24742,4.25,72012.5,-14.09,-15.53,-15.81,0,*64
1512097384.81,24743,4.25,72008.8,-14.09,-15.43,-15.71,0,*6B
1512097386.05,24744,4.25,72006.0,-14.05,-15.49,-15.67,0,*6D
1512097387.32,24745,4.25,72008.0,-14.05,-15.35,-15.63,0,*63
1512097388.56,24746,4.19,72008.0,-14.05,-15.49,-15.75,0,*6C
1512097389.81,24747,4.19,72008.3,-14.05,-15.49,-15.75,0,*6D
1512097391.05,24748,4.19,72006.5,-14.05,-15.63,-15.75,0,*6A
1512097392.3,24749,4.19,72006.3,-14.05,-15.53,-15.75,0,*68
1512097393.55,24750,4.19,72006.3,-14.05,-15.53,-15.75,0,*60
1512097394.8,24751,4.25,72006.5,-14.05,-15.63,-15.75,0,*62
1512097396.07,24752,4.25,72008.8,-14.05,-15.63,-15.81,0,*6A
1512097397.32,24753,4.25,72004.8,-14.05,-15.53,-15.75,0,*63
1512097398.57,24754,4.25,72006.0,-14.05,-15.53,-15.75,0,*64
1512097399.82,24755,4.25,72006.5,-14.05,-15.63,-15.75,0,*66
1512097401.06,24756,4.25,72006.8,-14.05,-15.63,-15.75,0,*65
1512097402.31,24757,4.25,72010.5,-14.05,-15.53,-15.75,0,*67
1512097403.56,24758,4.25,72006.5,-14.05,-15.53,-15.75,0,*68
1512097404.81,24759,4.25,72006.0,-14.05,-15.53,-15.75,0,*69
1512097406.08,24760,4.25,72008.3,-14.05,-15.63,-15.81,0,*6B
1512097407.35,24761,4.25,72004.0,-14.05,-15.75,-15.89,0,*65
1512097408.62,24762,4.19,72004.8,-14.05,-15.67,-15.89,0,*65
1512097409.87,24763,4.25,72010.5,-14.05,-15.75,-15.95,0,*6A
1512097411.14,24764,4.19,72008.0,-14.05,-15.75,-15.81,0,*68
1512097412.42,24765,4.19,72004.5,-14.05,-15.67,-15.81,0,*6A
1512097413.69,24766,4.25,72006.0,-14.05,-15.53,-15.81,0,*6E
1512097414.97,24767,4.25,72006.8,-14.05,-15.63,-15.81,0,*6C
1512097416.24,24768,4.25,72006.3,-14.05,-15.75,-15.89,0,*6C
1512097417.53,24769,4.25,72008.5,-14.05,-15.81,-15.89,0,*66
1512097418.78,24770,4.25,72010.3,-14.05,-15.75,-15.99,0,*64
1512097420.04,24771,4.25,72006.3,-14.09,-15.95,-16.13,0,*66
1512097421.31,24772,4.19,72004.3,-14.05,-15.95,-16.23,0,*6A
1512097422.57,24773,4.19,72002.8,-14.05,-15.99,-16.23,0,*67
1512097423.83,24774,4.25,72008.5,-14.09,-15.99,-16.27,0,*68
1512097425.11,24775,4.25,72008.5,-14.09,-15.95,-16.17,0,*66
1512097426.4,24776,4.25,72010.3,-14.09,-15.85,-16.17,0,*64
1512097427.65,24777,4.25,72010.5,-14.11,-15.95,-16.17,0,*6D
1512097428.92,24778,4.25,72008.5,-14.09,-15.95,-16.27,0,*68
1512097430.18,24779,4.25,72008.3,-14.09,-15.99,-16.17,0,*66
1512097431.41,24780,4.25,72012.0,-14.11,-15.99,-16.31,0,*6D
1512097432.65,24781,4.19,72010.3,-14.11,-16.03,-16.31,0,*6C
1512097433.92,24782,4.25,72010.5,-14.09,-16.03,-16.31,0,*66
1512097435.15,24783,4.25,72010.0,-14.11,-15.99,-16.31,0,*6E
1512097436.39,24784,4.25,72014.3,-14.11,-15.99,-16.27,0,*6E
1512097437.62,24785,4.25,72010.5,-14.11,-15.99,-16.31,0,*68
1512097438.86,24786,4.25,72008.3,-14.11,-16.03,-16.27,0,*6C
1512097440.09,24787,4.25,72010.0,-14.11,-15.99,-16.27,0,*6D
1512097441.33,24788,4.25,72010.5,-14.11,-15.99,-16.27,0,*62
1512097442.57,24789,4.19,72008.8,-14.11,-16.03,-16.31,0,*64
1512097443.81,24790,4.25,72012.5,-14.11,-16.03,-16.27,0,*6B
1512097445.07,24791,4.25,72012.3,-14.13,-16.03,-16.31,0,*6F
1512097446.34,24792,4.25,72010.8,-14.13,-16.03,-16.31,0,*6C
1512097447.61,24793,4.25,72008.3,-14.13,-16.03,-16.31,0,*6D
1512097448.88,24794,4.19,72008.8,-14.15,-15.89,-16.23,0,*6E
1512097450.14,24795,4.25,72010.3,-14.13,-15.99,-16.17,0,*6F
1512097451.38,24796,4.19,72008.5,-14.15,-15.99,-16.17,0,*6A
1512097452.65,24797,4.19,72008.0,-14.13,-15.99,-16.17,0,*6D
1512097453.95,24798,4.25,72010.3,-14.13,-15.89,-16.17,0,*63
1512097455.25,24799,4.19,72008.5,-14.13,-15.89,-16.09,0,*6D
1512097456.55,24800,4.25,72014.8,-14.13,-15.89,-16.09,0,*62
1512097457.85,24801,4.25,72010.0,-14.13,-15.89,-16.09,0,*63
1512097459.09,24802,4.19,72008.0,-14.15,-15.99,-16.09,0,*67
1512097460.39,24803,4.25,72012.8,-14.13,-15.89,-16.17,0,*6E
1512097461.67,24804,4.25,72008.5,-14.15,-15.89,-16.09,0,*60
1512097462.97,24805,4.25,72008.5,-14.13,-15.89,-16.09,0,*67
1512097464.27,24806,4.19,72008.8,-14.13,-15.89,-16.17,0,*6B
1512097465.54,24807,4.25,72010.8,-14.15,-15.89,-16.23,0,*6B
1512097466.84,24808,4.19,72008.5,-14.13,-15.89,-16.17,0,*65
1512097468.08,24809,4.25,72010.8,-14.15,-15.99,-16.17,0,*63
1512097469.38,24810,4.25,72010.0,-14.13,-15.89,-16.17,0,*6C
1512097470.65,24811,4.25,72010.3,-14.15,-15.89,-16.17,0,*6B
1512097471.9,24812,4.19,72010.3,-14.15,-15.99,-16.17,0,*69
1512097473.16,24813,4.19,72006.3,-14.13,-15.99,-16.23,0,*69
1512097474.43,24814,4.25,72010.5,-14.15,-15.89,-16.23,0,*69
1512097475.66,24815,4.25,72006.5,-14.15,-15.99,-16.23,0,*69
1512097476.9,24816,4.19,72006.5,-14.15,-15.99,-16.23,0,*6A
1512097478.17,24817,4.25,72010.8,-14.15,-15.89,-16.23,0,*6A
1512097479.41,24818,4.25,72010.3,-14.15,-15.99,-16.23,0,*64
1512097480.65,24819,4.19,72006.5,-14.15,-16.03,-16.31,0,*66
1512097481.88,24820,4.19,72008.0,-14.15,-15.99,-16.31,0,*6C
1512097483.12,24821,4.19,72006.5,-14.15,-15.99,-16.23,0,*6E
1512097484.36,24822,4.25,72008.0,-14.15,-15.99,-16.23,0,*6D
1512097485.63,24823,4.25,72010.0,-14.15,-15.89,-16.23,0,*6D
1512097486.9,24824,4.25,72010.0,-14.17,-15.95,-16.27,0,*61
1512097488.17,24825,4.19,72010.3,-14.15,-15.89,-16.17,0,*6C
1512097489.45,24826,4.25,72008.3,-14.15,-15.89,-16.09,0,*60
1512097490.73,24827,4.19,72010.0,-14.17,-15.95,-16.09,0,*6E
1512097492.0,24828,4.25,72008.8,-14.17,-15.95,-16.13,0,*6A
1512097493.25,24829,4.19,72010.3,-14.17,-15.75,-16.03,0,*64
1512097494.49,24830,4.25,72014.3,-14.15,-15.63,-15.85,0,*64
1512097495.74,24831,4.19,72010.3,-14.15,-15.71,-15.85,0,*66
1512097496.98,24832,4.25,72008.3,-14.15,-15.85,-15.99,0,*63
1512097498.24,24833,4.25,72012.5,-14.15,-15.75,-16.09,0,*67
1512097499.51,24834,4.25,72012.5,-14.15,-15.85,-16.17,0,*60
1512097500.75,24835,4.19,72008.8,-14.15,-16.03,-16.31,0,*68
1512097502.03,24836,4.25,72012.0,-14.15,-16.09,-16.31,0,*61
1512097503.3,24837,4.25,72014.5,-14.15,-16.09,-16.23,0,*63
1512097504.57,24838,4.25,72012.5,-14.17,-16.03,-16.27,0,*60
1512097505.84,24839,4.19,72008.8,-14.17,-15.95,-16.23,0,*69
1512097507.11,24840,4.19,72010.0,-14.17,-16.03,-16.23,0,*6B
1512097508.38,24841,4.25,72010.3,-14.17,-16.03,-16.27,0,*6E
1512097509.65,24842,4.19,72010.3,-14.17,-16.03,-16.27,0,*6D
1512097510.95,24843,4.19,72008.8,-14.17,-16.09,-16.27,0,*66
1512097512.25,24844,4.25,72014.8,-14.17,-16.09,-16.27,0,*61
1512097513.5,24845,4.25,72010.3,-14.21,-15.95,-16.37,0,*62
1512097514.77,24846,4.25,72010.5,-14.17,-16.03,-16.27,0,*69
1512097516.04,24847,4.25,72010.3,-14.17,-16.03,-16.23,0,*6C
1512097517.31,24848,4.25,72014.0,-14.21,-16.03,-16.23,0,*66
1512097518.58,24849,4.19,72008.3,-14.21,-16.03,-16.23,0,*67
1512097519.85,24850,4.25,72008.5,-14.17,-16.03,-16.27,0,*6E
1512097521.1,24851,4.19,72008.0,-14.17,-16.03,-16.37,0,*6E
1512097522.38,24852,4.19,72010.0,-14.21,-16.09,-16.37,0,*62
1512097523.65,24853,4.25,72010.3,-14.21,-16.13,-16.37,0,*68
1512097524.95,24854,4.19,72008.3,-14.17,-16.09,-16.27,0,*60
1512097526.22,24855,4.25,72010.0,-14.17,-16.03,-16.27,0,*6B
1512097527.5,24856,4.19,72008.0,-14.21,-15.95,-16.13,0,*66
1512097528.8,24857,4.25,72004.5,-14.17,-15.89,-16.09,0,*64
1512097530.07,24858,4.25,72006.5,-14.17,-15.81,-15.95,0,*65
1512097531.32,24859,4.19,72004.8,-14.21,-15.67,-15.95,0,*69
1512097532.6,24860,4.25,72004.3,-14.21,-15.67,-15.89,0,*6E
1512097533.87,24861,4.25,72010.3,-14.17,-15.53,-15.89,0,*6D
1512097535.15,24862,4.19,72004.5,-14.17,-15.49,-15.81,0,*6D
1512097536.42,24863,4.19,72004.5,-14.17,-15.49,-15.81,0,*6C
1512097537.7,24864,4.19,72008.8,-14.17,-15.63,-15.81,0,*63
1512097538.97,24865,4.25,72008.5,-14.17,-15.53,-15.81,0,*61
1512097540.24,24866,4.19,72010.0,-14.17,-15.63,-15.89,0,*69
1512097541.52,24867,4.25,72012.0,-14.17,-15.53,-15.89,0,*6B
1512097542.79,24868,4.25,72008.0,-14.17,-15.63,-15.81,0,*6F
1512097544.07,24869,4.19,72006.5,-14.17,-15.53,-15.81,0,*6D
1512097545.29,24870,4.25,72010.3,-14.15,-15.49,-15.63,0,*60
1512097546.53,24871,4.19,72006.3,-14.13,-15.49,-15.63,0,*67
1512097547.78,24872,4.25,72008.0,-14.15,-15.57,-15.75,0,*6A
1512097549.05,24873,4.25,72010.8,-14.17,-15.67,-15.89,0,*69
1512097550.32,24874,4.25,72012.8,-14.17,-15.67,-15.89,0,*6E
1512097551.59,24875,4.19,72008.5,-14.13,-15.63,-15.85,0,*63
1512097552.86,24876,4.25,72008.5,-14.13,-15.63,-15.85,0,*60
1512097554.13,24877,4.25,72010.0,-14.15,-15.57,-15.85,0,*60
1512097555.4,24878,4.25,72010.8,-14.15,-15.57,-15.85,0,*6F
1512097556.67,24879,4.25,72008.0,-14.15,-15.57,-15.85,0,*6E
1512097557.92,24880,4.25,72008.5,-14.15,-15.63,-15.85,0,*6F
1512097559.16,24881,4.19,72006.0,-14.13,-15.71,-15.75,0,*64
1512097560.38,24882,4.25,72008.5,-14.15,-15.63,-15.75,0,*62
1512097561.63,24883,4.25,72010.5,-14.15,-15.63,-15.85,0,*6C
1512097562.88,24884,4.25,72006.8,-14.15,-15.63,-15.85,0,*6B
1512097564.15,24885,4.25,72006.5,-14.13,-15.49,-15.85,0,*64
1512097565.37,24886,4.19,72006.5,-14.15,-15.49,-15.75,0,*6E
1512097566.59,24887,4.19,72006.5,-14.15,-15.49,-15.75,0,*6F
1512097567.86,24888,4.25,72008.5,-14.15,-15.57,-15.85,0,*60
1512097569.13,24889,4.25,72010.8,-14.13,-15.49,-15.85,0,*68
1512097570.35,24890,4.25,72008.0,-14.15,-15.49,-15.75,0,*69
1512097571.6,24891,4.25,72004.0,-14.13,-15.49,-15.75,0,*6E
1512097572.87,24892,4.19,72010.3,-14.13,-15.49,-15.85,0,*62
1512097574.11,24893,4.25,72008.5,-14.13,-15.49,-15.75,0,*6C
1512097575.36,24894,4.19,72010.0,-14.13,-15.49,-15.75,0,*6B
1512097576.65,24895,4.25,72010.3,-14.13,-15.57,-15.85,0,*6A
1512097577.94,24896,4.25,72008.3,-14.13,-15.57,-15.85,0,*69
1512097579.21,24897,4.25,72006.5,-14.13,-15.63,-15.85,0,*6F
1512097580.49,24898,4.19,72006.5,-14.15,-15.57,-15.85,0,*61
1512097581.75,24899,4.25,72008.5,-14.15,-15.57,-15.85,0,*60
1512097583.02,24900,4.25,72006.3,-14.13,-15.49,-15.85,0,*68
1512097584.29,24901,4.19,72004.5,-14.13,-15.57,-15.75,0,*69
1512097585.59,24902,4.19,72004.3,-14.13,-15.57,-15.85,0,*65
1512097586.86,24903,4.25,72008.3,-14.13,-15.57,-15.75,0,*6B
1512097588.13,24904,4.19,72006.8,-14.13,-15.49,-15.85,0,*6C
1512097589.4,24905,4.25,72006.5,-14.13,-15.57,-15.75,0,*6D
1512097590.67,24906,4.25,72010.3,-14.13,-15.49,-15.85,0,*6E
1512097591.96,24907,4.25,72008.3,-14.13,-15.43,-15.85,0,*65
1512097593.21,24908,4.25,72010.5,-14.11,-15.53,-15.81,0,*6D
1512097594.46,24909,4.19,72006.0,-14.13,-15.49,-15.75,0,*6E
1512097595.73,24910,4.25,72008.3,-14.11,-15.43,-15.81,0,*65
1512097596.95,24911,4.19,72006.3,-14.11,-15.53,-15.71,0,*6A
1512097598.17,24912,4.19,72010.3,-14.11,-15.53,-15.71,0,*69
1512097599.44,24913,4.19,72006.8,-14.13,-15.57,-15.75,0,*6A
1512097600.71,24914,4.25,72010.0,-14.13,-15.63,-15.85,0,*65
1512097601.95,24915,4.19,72008.0,-14.11,-15.57,-15.71,0,*6A
1512097603.2,24916,4.19,72006.3,-14.13,-15.49,-15.75,0,*60
1512097604.44,24917,4.25,72010.5,-14.11,-15.43,-15.71,0,*6D
1512097605.68,24918,4.19,72008.8,-14.11,-15.43,-15.71,0,*62
1512097606.9,24919,4.25,72012.8,-14.11,-15.53,-15.71,0,*62
1512097608.15,24920,4.19,72008.3,-14.11,-15.53,-15.81,0,*67
1512097609.42,24921,4.19,72006.5,-14.11,-15.43,-15.81,0,*67
1512097610.64,24922,4.19,72004.5,-14.11,-15.53,-15.71,0,*6A
1512097611.89,24923,4.25,72008.8,-14.11,-15.43,-15.71,0,*6A
1512097613.18,24924,4.19,72008.3,-14.09,-15.39,-15.81,0,*66
1512097614.45,24925,4.25,72010.8,-14.11,-15.43,-15.81,0,*63
1512097615.7,24926,4.25,72010.5,-14.11,-15.53,-15.81,0,*61
1512097616.95,24927,4.19,72010.5,-14.11,-15.53,-15.81,0,*60
1512097618.22,24928,4.25,72014.5,-14.11,-15.57,-15.81,0,*6B
1512097619.46,24929,4.25,72014.5,-14.11,-15.67,-15.85,0,*6D
1512097620.7,24930,4.25,72014.5,-14.11,-15.67,-15.85,0,*65
1512097621.95,24931,4.25,72014.3,-14.09,-15.67,-15.95,0,*6C
1512097623.19,24932,4.19,72008.3,-14.11,-15.67,-15.85,0,*67
1512097624.48,24933,4.19,72010.0,-14.09,-15.57,-15.85,0,*6C
1512097625.73,24934,4.25,72012.5,-14.11,-15.67,-15.85,0,*61
1512097626.99,24935,4.19,72014.3,-14.09,-15.67,-15.85,0,*69
1512097628.24,24936,4.19,72012.0,-14.09,-15.67,-15.95,0,*6B
1512097629.51,24937,4.19,72008.3,-14.09,-15.67,-15.85,0,*6B
1512097630.73,24938,4.19,72008.5,-14.11,-15.71,-15.95,0,*6B
1512097631.99,24939,4.19,72008.5,-14.09,-15.81,-16.03,0,*60
1512097633.26,24940,4.25,72012.8,-14.09,-15.81,-16.03,0,*6E
1512097634.52,24941,4.19,72010.0,-14.09,-15.81,-15.99,0,*6F
1512097635.76,24942,4.25,72010.5,-14.11,-15.81,-16.03,0,*65
1512097637.0,24943,4.19,72008.0,-14.11,-15.95,-16.13,0,*60
1512097638.27,24944,4.25,72008.8,-14.11,-15.85,-16.17,0,*62
1512097639.52,24945,4.25,72008.5,-14.11,-16.03,-16.17,0,*6E
1512097640.75,24946,4.19,72006.0,-14.11,-15.99,-16.27,0,*6E
1512097642.02,24947,4.19,72006.0,-14.09,-15.99,-16.17,0,*65
1512097643.29,24948,4.25,72008.3,-14.11,-15.85,-16.13,0,*6A
1512097644.56,24949,4.25,72010.5,-14.11,-15.85,-16.17,0,*6F
1512097645.83,24950,4.19,72010.0,-14.11,-15.85,-16.13,0,*63
1512097647.13,24951,4.25,72014.5,-14.13,-15.89,-16.17,0,*68
1512097648.4,24952,4.19,72004.0,-14.13,-15.89,-15.99,0,*6E
1512097649.61,24953,4.25,72010.8,-14.11,-15.71,-15.95,0,*66
1512097650.85,24954,4.19,72008.3,-14.11,-15.81,-15.99,0,*62
1512097652.15,24955,4.25,72008.8,-14.13,-15.85,-16.09,0,*6F
1512097653.39,24956,4.19,72008.3,-14.11,-15.99,-16.13,0,*68
1512097654.63,24957,4.19,72006.0,-14.11,-16.03,-16.17,0,*6D
1512097655.93,24958,4.19,72004.8,-14.13,-16.09,-16.31,0,*6E
1512097657.2,24959,4.19,72004.3,-14.13,-16.09,-16.37,0,*69
1512097658.47,24960,4.19,72004.3,-14.13,-16.17,-16.45,0,*69
1512097659.73,24961,4.19,72006.0,-14.13,-16.09,-16.45,0,*67
1512097661.01,24962,4.19,72004.0,-14.13,-16.09,-16.37,0,*61
1512097662.28,24963,4.19,72004.8,-14.13,-16.17,-16.37,0,*6F
1512097663.52,24964,4.19,72006.0,-14.15,-16.03,-16.31,0,*6D
1512097664.79,24965,4.19,72008.5,-14.15,-15.89,-16.09,0,*66
1512097666.04,24966,4.25,72010.0,-14.15,-15.85,-15.99,0,*63
1512097667.26,24967,4.25,72012.0,-14.15,-15.75,-15.99,0,*6D
1512097668.51,24968,4.25,72010.8,-14.15,-15.75,-15.89,0,*63
1512097669.76,24969,4.19,72008.5,-14.15,-15.75,-15.89,0,*62
1512097670.98,24970,4.19,72008.3,-14.15,-15.75,-15.99,0,*6B
1512097672.23,24971,4.19,72006.3,-14.15,-15.75,-15.89,0,*6B
1512097673.49,24972,4.25,72012.5,-14.13,-15.71,-15.89,0,*6A
1512097674.74,24973,4.19,72008.3,-14.13,-15.63,-15.99,0,*69
1512097676.01,24974,4.19,72008.0,-14.13,-15.71,-15.89,0,*6C
1512097677.28,24975,4.19,72010.0,-14.13,-15.63,-15.89,0,*6E
1512097678.52,24976,4.19,72010.0,-14.15,-15.75,-15.89,0,*6C
1512097679.77,24977,4.19,72008.3,-14.15,-15.71,-15.89,0,*69
1512097680.99,24978,4.25,72010.8,-14.15,-15.75,-15.99,0,*63
1512097682.26,24979,4.19,72010.3,-14.13,-15.71,-15.89,0,*61
1512097683.53,24980,4.25,72012.0,-14.13,-15.63,-15.89,0,*64
1512097684.8,24981,4.19,72008.0,-14.13,-15.71,-15.89,0,*66
1512097686.04,24982,4.19,72004.0,-14.15,-15.63,-15.89,0,*60
1512097687.31,24983,4.25,72008.5,-14.13,-15.63,-15.85,0,*6B
1512097688.58,24984,4.25,72010.3,-14.13,-15.57,-15.75,0,*64
1512097689.8,24985,4.25,72012.0,-14.15,-15.49,-15.75,0,*6C
1512097691.07,24986,4.19,72010.5,-14.13,-15.57,-15.75,0,*66
1512097692.32,24987,4.19,72010.5,-14.13,-15.63,-15.75,0,*60
1512097693.59,24988,4.19,72010.3,-14.13,-15.63,-15.85,0,*60
1512097694.86,24989,4.19,72008.8,-14.13,-15.63,-15.85,0,*61
1512097696.11,24990,4.25,72008.3,-14.13,-15.63,-15.75,0,*66
1512097697.38,24991,4.25,72008.3,-14.09,-15.53,-15.81,0,*64
1512097698.63,24992,4.19,72008.0,-14.11,-15.53,-15.81,0,*6E
1512097699.9,24993,4.19,72008.5,-14.13,-15.63,-15.85,0,*6A
1512097701.17,24994,4.19,72004.0,-14.13,-15.85,-15.99,0,*68
1512097702.47,24995,4.25,72012.8,-14.13,-15.89,-16.09,0,*6F
1512097703.71,24996,4.19,72008.0,-14.13,-15.71,-15.99,0,*61